EHI
0 0 0 0 1 1 1 1 1 1 0 0 0 0 0 1 2 2 2 1 1 0 0 0 0 0 0 0 0 0 0 0 0 0 0 0 0 1 1 1 0 0 0
0 0 0 0 0 0 0 0 0 0 1 1 1 0 0 0 1 1 1 1 1 0 0 0 0 0 0 0 0 0 0 0 0 0 0 0 0 0 0 0 0 0 0
0 0 0 0 0 0 0 0 0 0 1 2 1 0 0 0 0 0 0 0 0 0 0 0 0 0 0 0 0 0 0 0 0 0 0 0 0 0 0 0 0 0 0
0 0 0 0 0 0 0 0 0 0 1 1 1 0 0 0 1 0 0 0 0 0 0 0 0 0 0 0 0 0 0 0 0 0 0 0 0 0 0 0 0 0 0
0 0 0 0 0 0 0 0 0 0 0 0 0 0 0 0 0 0 0 0 0 0 0 0 0 0 0 0 0 0 0 0 0 0 0 0 0 0 0 0 0 0 0
0 0 0 0 0 0 0 0 0 0 0 0 0 0 0 0 0 0 0 0 0 0 0 0 0 0 0 0 0 1 1 1 1 0 0 0 0 0 0 0 0 0 0
0 0 0 0 0 0 0 0 0 0 0 0 0 0 0 0 0 0 0 0 0 0 0 0 0 0 0 0 0 1 2 2 2 1 0 0 0 0 0 0 0 0 0
0 0 0 1 1 1 0 0 0 0 0 0 0 0 0 0 0 0 0 1 0 0 0 0 0 0 0 0 0 1 2 2 1 0 0 0 0 0 0 0 0 0 0
0 0 0 1 1 1 0 0 0 0 0 0 0 0 0 0 0 0 0 0 0 0 0 0 0 0 0 0 0 1 1 1 0 0 0 0 0 0 0 0 0 0 0
0 0 0 0 1 1 0 1 1 1 0 0 0 0 0 0 0 0 0 0 0 0 0 0 0 0 0 0 0 0 0 0 0 0 0 0 0 0 0 0 0 0 0
0 0 0 0 0 1 1 1 2 2 1 0 0 0 0 0 0 0 0 0 0 0 0 0 0 0 0 0 0 0 0 0 0 0 0 0 0 0 1 1 1 0 0
0 0 0 0 1 2 2 2 3 2 1 1 1 1 1 1 1 0 0 0 0 0 0 0 0 0 0 0 1 0 0 0 0 0 1 2 1 1 2 2 2 1 0
0 0 0 0 1 2 3 2 2 3 3 2 2 2 2 2 2 1 0 0 0 0 0 0 0 0 0 0 0 0 0 0 0 0 1 3 3 3 3 3 3 2 2
1 0 0 0 1 2 1 1 2 3 3 3 3 3 3 3 2 1 0 0 0 0 0 0 0 0 0 0 0 0 0 0 0 1 2 4 5 3 3 3 3 3 4
3 2 1 1 1 1 1 1 2 3 3 3 3 3 3 3 1 0 0 0 0 0 0 0 0 0 0 0 0 0 0 1 1 2 3 5 6 3 2 3 4 3 3
3 3 2 2 2 2 2 2 3 3 3 3 3 3 3 3 1 1 0 0 0 0 0 1 0 1 2 2 1 1 1 2 3 3 3 4 5 3 2 3 4 3 2
3 3 3 3 3 4 4 3 3 2 3 3 3 3 4 4 4 3 1 1 0 1 1 1 1 2 4 4 3 2 3 4 5 5 3 3 4 4 4 5 5 4 2
5 4 4 3 2 3 4 4 2 1 1 2 3 3 5 6 6 4 3 2 2 2 2 1 1 1 2 3 3 3 3 4 4 4 3 4 4 4 6 8 7 4 3
7 7 7 5 4 5 5 5 4 2 1 1 3 4 5 7 6 5 4 3 3 2 2 2 1 1 1 1 2 2 1 1 1 1 2 3 3 3 3 6 6 4 3
8 11 12 11 10 9 6 5 5 3 2 1 2 3 4 5 6 5 4 4 3 2 2 3 3 1 1 2 2 1 1 0 0 0 1 1 1 1 1 2 3 3 3
10 14 18 18 17 13 9 7 5 4 2 1 2 3 2 3 4 4 4 4 2 2 3 5 5 3 3 3 3 2 2 1 0 0 0 0 0 0 0 0 2 3 3
15 16 19 21 20 17 13 10 8 7 4 2 1 2 1 1 2 3 3 2 2 3 4 5 5 4 3 3 3 3 3 1 1 0 0 1 1 0 0 0 2 3 3
15 15 16 21 25 23 18 13 12 11 8 4 2 1 1 1 1 2 1 2 3 4 4 4 4 3 3 3 3 3 3 3 2 1 1 2 2 1 0 0 2 3 3
12 12 16 23 30 29 23 18 16 13 9 5 2 1 1 1 1 0 1 2 3 4 3 3 3 3 4 4 4 4 4 4 3 2 3 3 2 2 2 2 3 5 5
11 13 17 26 34 34 29 26 23 16 10 6 5 4 2 1 0 0 1 3 4 3 3 3 3 4 4 5 6 6 5 6 5 4 4 3 3 4 5 5 5 5 5
11 13 18 27 37 37 32 30 29 20 11 7 7 7 4 1 0 0 1 4 5 4 3 3 3 4 4 5 6 7 7 8 7 6 4 4 3 4 5 6 6 5 4
Wind_Speed
7 9 11 10 11 11 12 13 12 12 13 14 14 13 14 14 14 14 14 14 14 15 16 16 16 16 16 16 16 15 16 15 15 15 15 15 15 15 14 14 13 14 16
7 10 10 9 10 11 12 13 13 13 13 13 13 13 14 14 14 14 14 14 14 15 15 16 16 15 15 15 15 15 15 14 14 14 15 14 15 13 12 10 8 13 15
8 9 10 9 9 10 12 12 13 13 13 13 13 13 13 13 13 13 14 13 14 15 15 15 15 15 15 15 15 14 14 13 13 12 10 11 14 13 11 12 14 15 14
8 9 10 9 9 10 11 12 12 12 13 13 13 13 13 13 13 13 13 13 14 15 15 15 15 15 14 14 14 14 13 13 11 8 7 10 12 13 12 12 13 13 13
8 9 11 8 10 10 11 11 11 12 12 13 13 13 13 13 13 13 13 13 14 15 15 15 14 14 14 13 13 13 12 11 8 5 9 9 10 13 12 12 12 12 13
9 9 12 7 9 10 10 10 11 11 12 12 12 12 12 12 12 12 12 13 14 14 14 14 13 13 13 12 12 12 10 8 6 8 8 8 10 12 12 12 12 12 11
9 9 11 8 9 9 10 10 10 10 11 11 11 11 11 11 12 12 12 13 13 13 13 13 12 12 12 11 11 10 7 3 3 8 7 7 10 11 10 10 11 11 10
8 9 11 10 8 8 9 9 9 9 10 10 10 11 11 11 11 11 12 12 12 12 11 11 11 11 10 10 9 8 5 2 5 7 7 8 11 10 9 9 9 9 9
7 8 7 9 9 8 7 7 8 8 9 9 9 10 10 10 10 10 10 11 11 10 10 10 9 9 9 8 7 6 3 2 1 5 7 7 10 9 9 9 9 8 9
6 7 6 6 6 6 8 7 7 7 8 8 8 8 8 9 9 9 9 10 9 9 9 8 8 8 7 7 6 5 3 4 3 6 5 8 10 8 8 8 8 8 8
6 5 5 6 5 4 6 7 6 7 6 5 6 6 4 5 7 7 10 9 7 7 7 7 6 6 6 7 6 5 5 3 4 3 4 11 9 8 8 8 8 8 8
6 6 5 4 5 3 4 4 3 4 5 3 4 4 3 4 3 5 9 6 5 5 5 5 4 6 6 5 8 8 4 3 2 3 6 10 8 7 8 7 7 8 8
6 5 6 5 3 2 3 2 2 2 3 3 4 3 2 2 3 3 3 5 5 5 4 6 6 3 2 1 1 3 1 1 1 2 6 9 7 7 7 8 8 8 8
5 4 4 5 3 2 2 2 1 2 2 2 3 1 2 1 1 2 1 2 2 2 1 1 1 1 0 1 1 1 2 2 1 1 5 8 7 7 7 7 8 9 9
5 5 4 3 3 2 1 0 2 1 2 3 2 1 1 1 1 1 1 1 0 1 2 2 1 1 2 2 2 2 2 1 1 2 3 7 7 6 7 8 8 8 9
5 5 4 4 3 2 2 1 0 1 1 1 1 2 1 1 1 1 1 1 0 0 0 0 1 2 2 1 1 1 2 2 1 2 3 6 8 7 6 8 9 9 10
6 5 4 4 4 3 2 2 1 0 1 1 1 1 1 1 1 1 1 1 1 1 1 1 2 2 2 2 2 2 2 2 2 2 3 2 4 7 7 7 7 9 10
5 5 5 3 4 4 2 1 0 1 1 1 1 1 1 1 1 1 0 0 1 2 2 1 2 1 1 2 1 1 1 2 2 3 3 2 2 2 5 6 5 6 9
6 6 5 4 4 3 3 2 1 0 0 0 0 1 1 1 1 1 0 0 2 1 1 2 1 1 1 2 2 2 2 2 2 2 2 2 1 1 2 5 5 4 5
7 6 6 5 4 4 3 2 1 1 1 0 1 1 1 0 0 1 1 1 2 2 1 1 1 2 2 2 2 0 1 1 1 1 2 1 1 1 1 1 2 4 4
8 8 7 6 5 4 3 2 2 1 1 1 1 2 1 1 1 1 1 0 2 1 1 2 2 2 2 1 2 1 1 1 1 0 0 0 0 0 0 0 1 1 2
9 9 8 8 7 6 3 2 1 1 1 1 1 1 1 1 1 0 1 1 1 1 1 1 2 2 2 2 2 2 2 2 1 1 1 0 0 1 1 0 0 0 1
10 10 8 8 7 6 5 4 3 2 2 2 1 1 1 1 1 2 1 2 2 2 1 1 2 2 2 2 2 2 2 0 1 1 2 1 1 1 1 1 1 1 1
10 9 9 8 7 7 7 5 4 2 2 1 0 1 1 1 1 1 1 2 2 2 2 2 1 2 3 2 2 2 2 1 1 1 1 2 2 2 2 2 2 2 2
10 9 9 8 8 7 6 5 5 3 2 2 1 1 1 1 1 2 2 2 2 2 3 3 2 3 2 3 2 2 2 2 3 1 1 1 1 2 2 2 2 2 2
10 9 9 9 8 8 7 6 5 3 2 1 1 1 1 1 0 1 1 2 2 3 3 3 3 2 3 3 3 2 2 2 2 1 2 2 1 2 3 3 3 3 3
Wind_Direction
73 74 68 62 65 70 75 78 82 85 86 86 86 90 95 96 96 98 98 99 101 101 99 99 100 100 101 101 103 105 106 107 107 109 111 113 116 117 119 126 134 118 118
88 85 80 66 66 69 73 78 82 85 86 86 85 88 93 95 95 96 97 99 100 100 100 99 100 100 101 101 102 103 105 107 107 108 111 112 114 115 119 119 102 112 125
97 94 92 72 69 72 76 79 81 84 86 86 86 88 89 92 95 96 97 98 100 101 101 100 100 100 100 100 102 102 103 105 108 116 131 123 115 116 115 109 108 120 124
96 93 82 77 73 77 77 77 80 83 86 88 87 86 86 90 93 97 97 98 100 101 100 100 99 100 101 101 102 103 104 105 111 139 133 112 116 116 120 118 120 124 125
96 94 88 79 77 79 77 79 80 85 85 87 89 87 85 86 88 92 96 99 101 101 100 100 100 101 102 103 103 103 104 108 124 145 101 106 108 117 122 122 124 125 126
109 102 94 81 80 78 79 80 82 86 84 87 87 88 89 88 90 91 93 97 99 101 102 103 104 104 105 106 106 106 108 124 165 109 109 115 112 122 127 128 129 129 130
107 102 101 88 83 80 80 79 79 82 85 86 86 90 92 91 92 94 96 98 100 101 103 105 105 105 106 107 106 108 112 146 115 103 110 108 105 119 128 130 130 132 135
109 106 108 108 89 81 80 82 81 82 83 86 86 90 95 93 93 96 98 101 103 104 104 105 106 109 110 108 108 111 121 220 123 109 107 104 108 127 134 135 137 138 140
108 107 109 118 119 112 91 82 84 83 85 86 87 91 95 96 96 98 101 102 105 109 109 109 109 110 113 114 114 115 116 295 134 116 117 112 122 135 142 144 145 145 146
110 106 109 104 103 121 119 103 90 87 87 89 90 95 104 112 113 115 119 107 106 109 111 111 112 115 119 124 128 134 162 229 149 121 118 115 131 146 152 154 156 156 157
114 112 110 109 107 104 104 112 125 119 111 124 117 119 151 132 119 129 98 106 110 113 114 115 120 126 140 146 153 170 203 205 124 106 105 114 141 156 164 166 167 168 169
132 130 117 105 102 100 96 110 111 114 110 102 87 106 112 92 91 98 110 117 118 123 132 135 150 177 206 164 164 189 199 171 152 139 116 127 150 166 176 179 180 182 180
137 134 125 117 117 114 108 103 83 88 101 110 101 106 105 128 134 128 137 142 151 167 165 157 189 193 173 127 158 177 166 187 171 142 123 142 165 179 186 191 192 192 191
148 144 125 121 117 84 56 84 113 106 104 87 102 118 123 119 107 105 118 116 143 146 136 180 162 163 181 180 196 208 189 210 173 132 125 147 173 190 195 197 199 198 198
164 162 143 138 127 128 117 332 85 70 63 92 89 94 75 134 115 107 91 87 153 140 167 177 184 183 215 207 209 206 229 226 213 207 144 157 182 201 207 207 204 203 204
175 168 155 164 154 155 152 158 25 83 87 47 79 76 60 106 108 145 153 125 156 190 354 229 204 208 215 210 220 211 236 249 233 230 209 167 182 199 213 216 213 212 212
177 172 171 177 167 171 177 192 172 118 86 53 67 77 86 115 116 170 151 182 146 163 187 223 230 231 217 202 216 231 231 241 232 230 238 215 184 186 200 212 216 217 218
179 174 186 187 163 172 181 229 249 30 52 39 46 102 111 115 159 235 195 191 204 227 216 209 232 228 233 237 228 248 237 212 230 227 223 216 220 194 179 188 211 221 221
185 183 187 190 186 181 173 188 204 151 28 354 2 46 107 157 180 229 237 17 248 244 252 263 213 253 237 244 229 219 240 233 228 227 211 210 195 214 195 162 181 208 218
189 189 191 188 192 194 187 183 206 184 173 160 40 30 10 181 127 287 204 226 264 256 259 280 274 263 260 253 266 298 281 256 234 204 217 199 196 205 211 183 188 191 196
191 191 192 196 189 199 203 216 200 183 184 150 122 70 27 10 34 294 306 217 267 265 281 263 257 228 234 238 242 214 189 198 130 135 248 261 135 38 357 345 277 271 173
193 192 191 194 195 204 195 212 217 225 198 126 46 80 41 27 351 281 291 274 286 278 253 273 266 278 253 236 261 252 211 173 145 102 119 153 53 82 70 51 354 345 316
193 193 194 193 194 202 198 200 183 176 200 165 159 135 55 12 9 355 350 321 322 303 334 298 276 272 273 258 258 278 272 198 117 126 84 70 57 65 70 52 53 60 49
192 188 190 189 192 192 197 204 208 210 196 144 173 103 111 32 357 349 346 342 327 324 337 290 291 271 266 261 233 245 276 303 237 158 130 100 83 59 35 15 31 59 49
191 185 182 185 187 189 196 191 204 207 187 168 167 116 297 72 1 343 343 340 330 326 341 327 321 291 272 273 264 248 243 231 238 225 193 128 90 74 63 39 29 45 54
188 183 178 177 182 184 187 188 196 193 194 188 194 177 211 132 32 358 327 332 324 331 328 315 306 295 301 296 285 271 258 257 241 213 196 176 125 80 64 47 35 36 47